Location: Newark
(30.4994°N, 96.8283°W)
Time: 10:57:40
(UTC+00:00)

Envisat - Pass Details

Date: 25 November 2019
Orbit: 764 x 766 km, 98.1° (Epoch: 06 December)

Event Time Altitude Azimuth Distance (km) Brightness Sun altitude
Rises 12:21:32 0° 28° (NNE) 3,231 6.4 -8.9°
Reaches altitude 10° 12:24:13 10° 41° (NE) 2,301 5.8 -8.3°
Maximum altitude 12:28:23 25° 96° (E) 1,494 5.6 -7.5°
Drops below altitude 10° 12:32:31 10° 152° (SSE) 2,291 6.3 -6.6°
Sets 12:35:10 0° 165° (SSE) 3,213 6.8 -6.1°
